This is the latest recevied weather packets stored in our database for station/object M0UPS-13. If no packets are shown the sender has not sent any weather packets the latest 10 day(s).
| Time | Temp. | Humidity | Pressure | Rain* | Wind** | Luminosity | Snow |
|---|---|---|---|---|---|---|---|
| 1778047502 | 9.44° C | 72% | 1013.4 hPa | 0 mm | - | 73 W/m² | - |
| 1778047203 | 8.89° C | 74% | 1013 hPa | 0 mm | - | 90 W/m² | - |
| 1778046902 | 8.89° C | 73% | 1013.3 hPa | 0 mm | - | 92 W/m² | - |
| 1778046602 | 8.89° C | 73% | 1013.2 hPa | 0 mm | - | 83 W/m² | - |
| 1778046302 | 8.89° C | 75% | 1013.1 hPa | 0 mm | - | 71 W/m² | - |
| 1778046002 | 8.89° C | 75% | 1013.2 hPa | 0 mm | - | 61 W/m² | - |
| 1778045702 | 8.89° C | 75% | 1013.1 hPa | 0 mm | - | 56 W/m² | - |
| 1778045402 | 8.89° C | 76% | 1013.1 hPa | 0 mm | - | 48 W/m² | - |
| 1778045102 | 8.89° C | 76% | 1013 hPa | 0 mm | - | 40 W/m² | - |
| 1778044802 | 8.89° C | 76% | 1013.2 hPa | 0 mm | - | 34 W/m² | - |
| 1778044502 | 8.89° C | 77% | 1012.9 hPa | 0 mm | - | 24 W/m² | - |
| 1778044202 | 8.33° C | 78% | 1013.1 hPa | 0 mm | - | 21 W/m² | - |
| 1778043902 | 8.33° C | 78% | 1013 hPa | 0 mm | - | 17 W/m² | - |
| 1778043603 | 8.33° C | 78% | 1012.8 hPa | 0 mm | - | 17 W/m² | - |
| 1778043302 | 8.33° C | 78% | 1013.1 hPa | 0 mm | - | 15 W/m² | - |
| 1778043002 | 8.33° C | 78% | 1013 hPa | 0 mm | - | 13 W/m² | - |
| 1778042702 | 8.33° C | 78% | 1012.9 hPa | 0 mm | - | 9 W/m² | - |
| 1778042402 | 8.33° C | 78% | 1013 hPa | 0 mm | - | 6 W/m² | - |
| 1778042102 | 8.33° C | 78% | 1013.1 hPa | 0 mm | - | 4 W/m² | - |
| 1778041802 | 8.89° C | 78% | 1013 hPa | 0 mm | - | 3 W/m² | - |
| 1778041502 | 8.89° C | 77% | 1012.9 hPa | 0 mm | - | 2 W/m² | - |
| 1778041202 | 8.89° C | 77% | 1013 hPa | 0 mm | - | 1 W/m² | - |
| 1778040903 | 8.89° C | 77% | 1012.9 hPa | 0 mm | - | 1 W/m² | - |
| 1778040602 | 8.89° C | 77% | 1013 hPa | 0 mm | - | 0 W/m² | - |
| 1778040302 | 8.89° C | 77% | 1012.9 hPa | 0 mm | - | 0 W/m² | - |
* Rain latest hour (hover to see other rain measurements)
** Current wind speed in m/s (hover to see current wind gust speed)